Miscellaneous Local Product
Issued by NWS North Platte, NE

Home | Current Version | Previous Version | Text Only | Print | Product List | Glossary On
Versions: 1 2 3 4 5 6 7 8 9 10 11 12 13 14 15 16 17 18 19 20 21 22 23 24 25 26 27 28 29 30 31 32 33 34 35 36 37 38 39 40 41 42 43 44 45 46 47 48 49 50
000
AXUS43 KLBF 051910
MISLBF


WESTERN AND NORTH CENTRAL NEBRASKA HOURLY WEATHER ROUNDUP
NATIONAL WEATHER SERVICE NORTH PLATTE NE
200 PM CDT SUN JUL 05 2015

***STATIONS NOT REPORTING VARIABLES SUCH AS SKY/WEATHER OR
PRESSURE ARE PROVIDED BY THE NEBRASKA DEPARTMENT OF
ROADS...RAWS...AND APRS NETWORKS...AND ARE NOT UNDER
NATIONAL WEATHER SERVICE QUALITY CONTROL***

...OBSERVATIONS IN AND NEAR THE EASTERN PANHANDLE OF NEBRASKA...

CITY           SKY/WX    TMP DP  RH WIND       PRES   REMARKS
PINE RIDGE     MOSUNNY   87  68  52 NE8       29.82F HX  90
CHADRON        PTSUNNY   88  67  49 N12       29.82S HX  91
ALLIANCE       MOSUNNY   92  59  33 W15       29.84S HX  91
SIDNEY         MOSUNNY   96  56  26 VRB6      29.88F HX  94
WHITECLAY        N/A     87  68  52 NE6         N/A  HX  90
CRESCENT LAKE    N/A     92  58  31 SW8         N/A  HX  91
BIG SPRINGS      N/A     94  60  32 NE3         N/A  HX  94
$$

...OBSERVATIONS IN NORTH CENTRAL NEBRASKA...

CITY           SKY/WX    TMP DP  RH WIND       PRES   REMARKS
VALENTINE      MOSUNNY   92  67  43 S14       29.77S HX  95
THEDFORD       SUNNY     91  68  47 S10G21    29.82F HX  95
AINSWORTH      MOSUNNY   89  69  51 S18       29.79F HX  93
O`NEILL        SUNNY     84  72  65 S15G22    29.80F HX  90
ORD            MOSUNNY   89  69  51 S17G24    29.79F HX  93
BROKEN BOW     SUNNY     90  70  51 SE17G26   29.81F HX  95
VALENTINE NWR    N/A     90  67  47 S15G22      N/A  HX  93
SPRINGVIEW       N/A     91  72  53 S8G22       N/A  HX  98
HALSEY           N/A     88  66  48 S9G17       N/A  HX  90
BREWSTER         N/A     93  72  49 S17         N/A  HX 100
ROSE             N/A     98  81  58 S21         N/A  HX 121
NEWPORT          N/A     89  66  45 S20         N/A  HX  92
SARGENT          N/A     87  71  59 S3          N/A  HX  92
CHAMBERS         N/A     88  74  63 S7          N/A  HX  97
EWING            N/A     84  73  70 S9G22       N/A  HX  90
$$

...OBSERVATIONS IN SOUTHWEST NEBRASKA AND FAR NORTHEAST COLORADO...

CITY           SKY/WX    TMP DP  RH WIND       PRES   REMARKS
WRAY           FAIR     102  45  14 SE8       29.84F HX  98
HOLYOKE        FAIR      99  59  26 SW9       29.85F HX  98
IMPERIAL       SUNNY     97  58  27 S10       29.82F HX  96
OGALLALA       SUNNY     92  63  38 E3        29.81F HX  92
NORTH PLATTE   SUNNY     92  67  43 S14G20    29.81S HX  95
MCCOOK         SUNNY     99  61  28 SE13G18   29.78F HX  99
LEXINGTON      MOSUNNY   90  69  50 SE16      29.81F HX  94
PAXTON           N/A     92  67  43 SE7         N/A  HX  95
GOTHENBURG       N/A     87  65  48 SE12        N/A
CALLAWAY         N/A     87  76  69 S15         N/A  HX  97
$$

...NORTH PLATTE AREA...

CITY           SKY/WX    TMP DP  RH WIND       PRES   REMARKS
AIRPORT        SUNNY     92  67  43 S14G20    29.81S HX  95
DOWNTOWN         N/A     91  70  49 SE5G12      N/A  HX  96
HILLCREST        N/A     89  68  50 S12         N/A  HX  93
$$

...SOME WEATHER OBSERVATIONS FROM AROUND THE REGION...

CITY           SKY/WX    TMP DP  RH WIND       PRES   REMARKS
DENVER         PTSUNNY   91  46  21 VRB6      29.97F
LARAMIE        PTSUNNY   78  47  33 NW3G18    30.11F
CHEYENNE       TSTM      73  58  59 S12       30.04R
SCOTTSBLUFF    PTSUNNY   92  55  28 NW10      29.85F HX  90
RAPID CITY     CLOUDY    77  64  64 N17       29.90R
PIERRE         PTSUNNY   85  70  60 E7        29.75F
WINNER         FAIR      93  66  40 S8        29.75F HX  96
SIOUX FALLS    MOSUNNY   88  66  48 S13       29.80R HX  90
OMAHA          CLOUDY    84  71  65 S17G29    29.86F
GRAND ISLAND   MOSUNNY   88  72  58 SE18G28   29.84F HX  94
KANSAS CITY    PTSUNNY   84  74  71 S12       29.94F HX  91
WICHITA        MOSUNNY   97  65  34 S17G30    29.89F HX  99
HAYS           SUNNY    100  63  28 S28       29.83F HX 102
LIBERAL        SUNNY     93  64  38 S20G29    29.94F HX  95
GOODLAND       SUNNY     97  53  22 S21G30    29.85F HX  94
$$



USA.gov is the U.S. government's official web portal to all federal, state and local government web resources and services.